sat.trackr.live / text

‹ back to catalog

IRIDIUM 158

NORAD 43571 · 2018-061C

PAYLOAD ACTIVE UNKNOWN

§ Identity

Operator
Country
US
Launch date
2018-07-25
Launch site
AFWTR
Launch vehicle
Mass (kg)
RCS (m²)

Purposes: comms

External: N2YO · Heavens-Above · Gunter

§ Orbital elements

Epoch: 2026-05-25T00:43:45.492096Z

Period
100.40 min
Inclination
86.3969°
Eccentricity
0.0002372
Mean motion
14.34221510 rev/d
Perigee alt
776.0 km
Apogee alt
779.4 km
Semi-major
7,155.8 km
B*
6.7299e-5
RAAN
66.4383°
Arg perigee
83.5000°
Mean anomaly
276.6465°
Rev number
41,004

§ Raw data

IRIDIUM 1581 43571U 18061C   26145.03038764  .00000208  00000+0  67299-4 0  99912 43571  86.3969  66.4383 0002372  83.5000 276.6465 14.34221510410041

JSON: /api/v1/satellites/43571 · /tle

For live sub-satellite position, see the globe view (requires WebGL).

§ Visibility from observer

Set your observer location to see the next 7 days of passes ≥ 10°. The values pass through the URL so the page stays shareable.

No JS? Fill the form by hand. The geolocation button needs JavaScript.